Lapse_Rate
6.0 6.0 5.9 6.0 6.4 5.8 6.0 5.8 5.8 5.5 5.8 6.1 6.1 6.1 6.4 6.5 6.2 6.1 6.5 7.0 6.9 7.4 7.6 7.0 6.7 6.2 6.2 6.2 6.3 6.2 5.9 6.0 6.5 6.0 6.3 6.1 6.2 6.2 6.1 6.2 6.2 6.4 6.1 6.1
6.3 6.6 6.3 6.2 6.0 6.1 6.0 5.8 5.7 5.5 5.6 6.6 6.9 7.0 7.2 7.1 7.1 6.8 6.7 7.0 7.0 7.0 7.4 7.0 6.6 6.7 6.7 6.3 6.1 6.0 5.9 6.1 6.1 5.9 6.0 6.2 6.1 6.2 6.0 6.2 6.3 6.2 6.2 6.4
6.6 6.3 6.2 5.7 6.3 6.5 6.7 7.0 6.8 6.3 7.3 7.1 7.2 7.3 7.2 7.2 7.4 6.9 7.0 7.0 7.0 7.0 7.0 7.0 7.0 6.7 7.0 7.1 6.8 6.7 6.5 6.8 6.6 6.0 6.0 5.9 6.1 6.3 6.3 5.9 6.4 6.0 6.0 6.5
6.7 6.5 6.5 6.7 6.7 6.9 7.3 7.4 7.0 7.1 7.2 7.5 7.2 7.0 7.1 7.6 7.4 7.3 7.2 7.0 6.8 6.7 7.0 7.0 7.0 7.0 6.9 7.1 7.2 7.0 6.5 6.4 6.3 6.1 6.2 6.1 6.3 6.4 6.3 5.9 5.5 5.4 6.1 6.1
6.4 6.5 6.7 6.7 6.6 6.9 6.8 7.1 7.4 7.5 7.8 7.4 7.1 7.0 7.2 7.2 7.1 7.2 7.3 7.4 7.4 7.2 7.2 7.2 7.3 7.4 7.4 7.4 7.5 7.5 7.4 7.0 6.5 6.4 6.3 6.4 6.2 6.4 6.5 6.0 5.9 5.6 6.0 6.1
6.9 6.9 6.9 7.5 7.5 7.3 7.1 7.0 7.6 7.5 7.4 7.3 7.2 7.2 7.2 7.1 7.0 6.9 7.0 7.2 7.5 7.7 7.7 7.6 7.7 7.8 7.8 7.8 7.9 8.0 8.0 8.0 7.6 7.0 6.5 6.6 6.5 6.3 6.3 5.9 5.6 5.5 5.9 5.9
7.2 7.2 6.9 7.0 7.1 7.3 7.3 7.2 7.6 7.6 7.5 7.3 7.3 7.4 7.0 6.9 6.9 7.2 7.4 7.6 7.7 7.7 7.6 7.6 7.3 7.4 7.4 7.7 7.9 8.1 8.2 8.1 8.1 8.0 7.2 6.6 6.6 6.1 6.0 5.7 5.4 5.9 5.8 6.1
7.2 7.2 6.8 6.8 6.8 7.0 7.3 7.4 7.3 7.3 7.2 7.3 7.1 7.2 7.0 7.1 7.4 7.5 7.4 7.6 7.6 7.5 7.3 7.0 6.8 7.0 7.0 7.3 7.2 7.4 7.7 7.8 7.9 7.5 7.3 6.8 6.6 5.7 5.7 5.7 5.5 6.1 5.8 6.2
6.9 7.0 6.6 6.9 6.9 6.9 7.0 7.2 7.4 7.5 7.0 7.0 6.9 7.0 7.2 6.9 7.0 7.3 7.4 7.4 7.4 7.2 6.9 6.9 6.8 6.8 7.0 7.1 7.0 6.3 6.8 6.9 6.8 7.2 7.1 5.9 5.7 5.7 5.9 5.7 5.8 6.0 6.3 6.2
7.1 6.8 6.5 6.6 6.8 7.0 7.0 7.6 7.2 7.4 7.3 7.4 7.3 7.1 7.0 7.2 7.6 7.7 7.6 7.6 7.1 7.1 7.2 7.1 7.0 6.6 6.7 6.6 6.3 6.3 6.5 6.5 6.4 6.4 6.4 5.7 5.8 5.8 5.9 6.2 6.3 6.4 6.2 6.0
6.8 6.6 7.0 6.6 6.8 7.3 7.5 7.8 7.6 7.4 7.4 7.1 7.0 7.2 7.3 7.6 7.6 7.8 7.8 7.3 7.4 7.3 7.3 7.3 7.2 6.9 6.8 6.7 6.1 6.0 5.9 5.7 5.8 5.8 5.9 5.7 5.7 6.3 6.3 6.4 6.4 6.1 5.9 6.2
7.1 7.2 7.0 7.2 7.2 7.4 7.7 7.8 7.6 7.3 7.1 7.4 7.3 7.2 7.7 7.8 7.8 7.8 7.7 7.6 7.7 7.5 7.5 7.4 7.3 7.1 7.0 6.9 6.6 6.3 6.1 6.0 6.1 5.7 5.9 6.2 6.3 6.3 6.3 6.2 5.9 6.0 6.3 6.3
7.2 7.5 7.5 7.8 7.8 7.4 7.5 7.6 7.4 7.2 7.2 7.2 7.1 7.9 8.0 8.0 7.7 7.7 7.9 7.8 7.6 7.4 7.3 7.3 7.4 7.2 7.1 7.0 6.8 6.7 6.6 6.9 6.8 6.8 6.7 6.7 6.7 6.6 6.3 6.4 6.7 6.7 6.3 6.3
7.2 7.2 7.5 7.8 7.9 7.4 7.2 7.2 7.2 7.3 7.0 7.0 7.5 7.9 7.9 7.9 7.9 7.7 7.7 7.7 7.8 7.8 7.3 7.3 7.3 7.1 7.2 7.4 7.1 7.3 7.0 6.9 6.7 6.8 6.7 6.6 6.6 6.6 6.7 6.9 6.8 6.8 6.6 6.4
7.6 7.3 7.5 7.9 7.8 7.8 7.4 7.7 7.2 7.4 7.4 7.3 7.5 8.0 7.9 7.8 7.6 7.7 7.7 7.6 7.6 7.7 7.8 7.6 7.2 7.0 7.0 6.9 6.9 7.0 6.9 6.8 6.7 6.8 7.1 7.1 7.0 7.0 6.9 6.9 6.8 6.5 6.2 6.2
7.4 7.2 7.2 7.9 8.0 8.1 7.6 7.6 7.5 7.5 7.3 7.6 7.7 7.8 7.7 7.7 7.6 7.5 7.5 7.5 7.5 7.4 7.4 7.5 7.3 7.0 6.9 6.8 6.7 6.6 6.7 6.7 6.7 6.7 6.8 6.9 7.1 7.0 7.0 6.9 6.9 6.6 6.6 6.4
7.3 7.0 7.3 7.8 7.9 8.1 7.7 7.8 7.5 7.8 7.6 7.6 7.4 7.5 7.6 7.7 7.6 7.6 7.6 7.7 7.5 7.3 7.1 7.0 7.1 7.0 7.1 7.0 6.9 6.8 6.8 6.8 6.7 6.8 6.9 6.5 6.5 6.8 6.8 6.8 6.7 6.8 6.6 6.5
7.5 6.9 7.0 7.4 7.7 8.1 8.1 8.0 7.6 7.7 7.8 7.6 7.4 7.5 7.6 7.6 7.6 7.7 7.9 7.8 7.5 7.3 7.2 7.3 7.4 7.5 7.5 7.6 7.5 7.5 7.2 7.0 6.8 6.7 6.5 6.6 6.6 6.7 6.8 6.8 6.9 6.8 6.7 6.4
7.7 7.6 7.4 7.3 7.8 8.0 8.0 8.0 7.9 7.8 7.7 7.6 7.6 7.7 7.7 7.8 7.9 7.9 8.0 8.0 7.8 7.6 7.6 7.6 7.7 7.7 7.7 7.8 7.8 7.7 7.7 7.5 7.3 6.9 7.0 6.7 6.6 6.7 6.8 6.8 6.9 6.9 6.8 6.6
7.9 7.9 7.6 7.5 7.6 7.7 7.6 7.6 7.4 7.4 7.6 7.9 7.9 7.9 7.8 8.1 8.2 8.1 8.0 8.3 8.1 7.9 7.9 7.8 7.7 7.7 7.6 7.6 7.7 7.7 7.8 7.9 7.9 7.4 7.3 7.1 7.2 7.0 7.1 7.1 7.1 7.0 6.9 6.9
7.5 7.4 7.5 7.7 7.7 7.6 7.5 7.1 7.4 7.7 7.8 7.7 7.9 8.0 8.0 8.3 8.3 8.3 8.2 8.2 8.0 7.9 7.9 7.7 7.7 7.7 7.8 7.8 7.9 7.9 8.2 8.3 7.8 7.4 7.4 7.3 7.3 7.3 7.3 7.3 7.3 7.2 7.1 7.1
7.2 7.3 7.6 7.6 7.5 7.4 7.3 7.4 7.7 7.8 7.8 7.9 8.0 8.1 8.3 8.4 8.4 8.4 8.2 8.2 7.8 7.6 7.4 7.4 7.5 7.6 7.8 7.9 8.0 8.1 8.2 8.4 8.0 7.2 7.2 7.2 7.0 7.3 7.2 7.4 7.3 7.2 7.3 7.3
7.4 7.3 7.2 7.3 6.7 7.2 7.5 7.6 7.7 7.7 7.8 7.9 8.0 8.0 8.1 8.1 8.3 8.2 7.9 7.8 7.4 7.2 7.3 7.3 7.4 7.5 7.7 7.8 7.9 8.0 8.0 8.3 8.1 7.7 7.4 7.3 7.2 7.3 7.3 7.3 7.3 7.3 6.9 6.7
7.6 7.5 7.4 7.5 7.6 7.7 7.7 7.6 7.7 7.7 7.7 7.8 7.9 8.0 7.9 7.9 8.0 8.0 7.7 7.4 7.2 7.3 7.3 7.2 7.3 7.4 7.6 7.7 7.7 7.8 7.8 7.8 8.0 7.9 7.8 7.8 7.6 7.3 7.4 7.3 6.9 6.6 6.6 6.7
7.4 7.2 7.3 7.3 7.3 7.3 7.3 7.3 7.4 7.4 7.6 7.6 7.7 7.7 7.7 7.7 7.7 7.6 7.3 7.2 7.2 7.3 7.1 7.1 7.1 7.1 7.3 7.5 7.6 7.7 7.8 7.8 7.8 7.9 7.6 7.5 7.5 7.3 7.1 7.1 7.1 7.1 7.0 6.8
7.4 7.4 7.4 7.3 7.3 7.2 7.3 7.3 7.4 7.4 7.5 7.6 7.7 7.8 7.6 7.5 7.4 7.2 7.1 7.1 7.2 7.2 7.2 7.1 7.0 7.0 7.0 7.1 7.2 7.4 7.5 7.7 7.7 7.7 7.6 7.5 7.5 7.3 7.4 7.4 7.2 6.9 6.9 6.8
7.4 7.4 7.4 7.2 7.1 7.2 7.3 7.5 7.6 7.9 8.1 8.4 8.4 8.1 7.7 7.5 7.3 7.2 7.2 7.2 7.1 7.2 7.2 7.1 7.0 7.0 7.1 7.1 7.2 7.1 7.1 7.3 7.4 7.5 7.6 7.5 7.4 7.4 7.3 7.0 6.7 6.6 6.5 6.3
Wind_Speed
9 5 4 2 5 8 7 4 4 2 9 8 9 10 10 9 8 8 7 6 8 10 11 10 9 10 10 11 12 15 14 14 12 10 10 12 15 14 14 14 12 12 12 11
9 10 7 5 7 9 7 4 5 7 14 9 11 4 7 10 7 4 2 5 5 6 5 7 10 12 13 13 15 16 18 19 16 14 15 14 13 14 14 13 13 12 11 13
5 12 10 8 20 14 10 9 13 11 15 4 3 6 6 5 2 2 2 2 4 4 4 6 8 10 12 12 10 14 16 15 17 19 18 17 16 14 15 13 14 12 11 12
2 8 7 2 5 17 19 13 14 6 6 7 6 6 2 2 2 6 7 6 4 5 6 6 5 8 10 12 13 14 13 13 15 18 18 17 18 17 15 13 13 12 12 13
2 5 3 2 3 7 9 10 12 12 6 6 5 4 2 3 3 4 6 7 6 7 5 5 6 7 11 12 14 15 16 16 18 18 17 19 18 17 14 13 11 11 11 12
2 4 6 4 2 5 5 2 4 6 4 6 6 3 4 5 2 5 5 6 7 9 5 6 5 6 10 12 14 15 15 16 16 17 18 19 18 16 13 11 11 10 10 9
6 2 3 4 4 5 6 4 3 4 4 6 3 4 4 1 4 3 5 9 9 7 5 5 3 6 8 10 14 13 11 12 14 15 16 17 17 14 12 12 11 10 11 10
3 3 2 9 5 3 1 3 2 1 1 2 2 0 2 3 4 7 9 9 8 4 4 4 3 5 6 9 7 8 11 13 13 13 12 12 16 13 14 14 13 12 10 9
4 3 2 6 3 3 3 3 1 1 3 4 4 3 2 3 4 3 6 5 2 2 2 0 1 1 2 3 7 10 12 13 14 13 13 13 15 14 11 12 11 11 10 9
5 3 3 3 7 2 3 4 5 1 3 3 2 2 6 2 3 3 4 4 2 4 4 5 6 6 6 8 10 12 13 13 14 14 13 13 11 11 11 10 10 11 10 9
3 5 4 2 3 5 8 3 4 3 3 3 4 5 5 2 3 4 5 5 1 3 5 7 7 7 8 9 11 10 10 10 10 9 12 11 10 11 10 11 13 11 10 10
4 3 2 4 3 4 4 4 2 4 2 2 4 7 2 3 1 2 5 4 3 3 3 5 7 6 8 9 9 10 9 8 8 8 9 9 9 7 13 13 18 17 17 12
5 5 5 6 5 5 2 3 6 6 2 6 4 3 4 3 2 2 3 6 6 4 2 5 6 7 9 9 10 11 10 9 7 8 8 9 9 10 10 10 16 19 22 20
6 3 5 6 5 6 7 8 6 10 9 6 5 3 4 2 1 3 5 5 5 3 2 4 5 6 11 12 10 9 9 13 9 9 9 9 9 9 9 11 12 9 14 14
18 13 12 9 4 9 7 4 3 2 1 5 6 5 5 4 3 4 5 5 6 5 6 2 3 5 6 10 11 10 9 8 8 9 8 9 9 9 9 9 9 9 8 9
7 7 8 8 10 9 9 8 6 6 4 1 6 6 5 4 3 4 6 7 6 5 5 6 5 2 6 8 9 9 8 12 10 9 9 9 9 9 9 9 9 9 10 8
4 6 5 6 8 8 13 6 7 6 6 2 5 5 4 4 2 4 5 6 5 6 6 4 5 1 4 8 10 7 7 9 10 8 9 9 9 10 10 10 9 9 10 11
8 5 4 6 6 3 6 8 10 9 5 4 5 4 3 3 4 5 6 7 7 7 6 5 3 4 2 5 7 6 7 8 9 9 8 9 10 9 9 10 11 10 9 11
7 7 3 5 5 9 7 9 7 7 4 5 5 3 2 3 3 4 6 4 5 8 5 4 4 5 4 4 7 6 8 9 9 8 9 10 9 9 10 10 10 10 10 10
11 9 7 8 6 7 8 7 6 5 3 4 3 4 4 5 5 4 3 3 4 4 6 6 6 5 5 4 7 7 9 10 10 9 9 10 10 10 10 12 11 10 10 10
9 6 8 6 8 8 4 4 5 4 3 2 3 3 3 3 3 4 5 5 5 5 7 9 5 4 3 5 6 8 9 10 10 10 10 10 11 10 10 10 10 10 10 10
5 5 5 7 4 5 4 3 3 3 2 2 3 3 3 3 4 4 4 5 4 6 5 7 5 5 4 6 5 7 8 9 9 8 8 9 10 10 10 11 11 10 10 10
5 5 5 4 3 3 4 3 3 3 2 1 2 1 1 1 1 3 5 3 5 7 6 6 8 10 6 3 4 6 6 8 8 8 9 9 9 9 9 10 10 9 9 10
4 5 4 4 4 3 2 1 2 3 3 3 4 3 2 1 3 1 2 5 9 9 7 6 6 9 5 2 2 3 4 5 6 6 6 8 6 7 8 9 9 9 9 10
3 6 7 4 5 2 2 4 4 4 4 3 3 3 3 2 2 1 2 4 7 7 5 7 7 6 2 1 2 2 2 3 5 6 7 7 8 9 8 8 9 9 9 9
3 3 3 4 2 3 2 2 1 1 2 1 1 1 2 2 2 2 2 5 5 6 4 4 4 3 2 2 2 2 2 3 4 4 6 6 6 6 7 8 8 8 9 9
3 3 2 2 2 2 3 2 1 2 2 2 1 2 2 2 1 1 3 3 3 4 4 4 4 4 3 3 3 3 3 3 5 4 5 5 5 6 7 7 7 7 7 8
Wind_Direction
219 162 118 127 154 179 201 164 217 271 219 186 191 224 241 243 244 251 250 249 230 209 203 195 195 193 201 189 178 162 163 171 167 155 144 145 146 149 146 145 145 141 145 138
197 167 171 195 225 196 199 212 243 232 265 250 260 232 221 247 253 259 313 343 321 299 255 200 203 202 199 192 185 178 176 175 161 157 153 155 151 149 143 142 140 145 152 149
231 174 188 220 212 194 210 203 207 203 233 130 160 244 268 277 303 26 19 2 345 307 287 248 219 200 202 204 194 184 186 176 169 161 161 160 150 149 147 150 145 150 156 153
173 151 214 298 187 198 205 208 207 207 203 159 188 198 198 119 38 9 343 336 319 273 280 277 228 207 191 181 190 190 185 176 173 165 158 158 155 152 152 151 156 155 162 154
185 218 343 130 211 161 169 225 219 227 230 145 168 108 68 120 28 318 312 309 296 287 255 255 261 208 183 182 184 185 185 179 175 167 162 158 158 152 147 150 152 159 159 156
212 187 195 234 204 166 104 303 229 201 175 162 149 170 228 188 244 277 294 287 288 300 300 298 288 183 177 182 185 193 183 176 174 171 167 162 152 151 147 153 150 146 147 158
245 272 300 1 337 280 120 201 133 162 152 157 161 175 194 257 351 354 323 309 304 295 292 296 229 164 184 185 195 189 167 166 169 168 163 156 145 143 140 142 140 143 155 161
183 198 230 1 351 26 323 340 88 61 28 71 94 165 270 338 353 346 332 325 318 332 335 318 202 178 199 201 178 156 150 153 153 152 151 146 136 143 148 142 146 151 152 160
359 38 323 330 15 1 338 300 329 154 190 163 185 229 7 301 303 339 305 292 243 203 147 210 233 206 170 132 121 133 143 147 147 145 140 139 145 147 145 151 154 158 161 162
343 357 154 274 315 327 199 241 280 221 83 160 200 238 255 303 324 351 295 297 177 142 116 79 75 87 116 127 134 141 146 149 149 150 152 149 146 150 152 157 165 166 165 167
286 277 317 272 281 291 315 322 276 277 128 186 227 249 245 64 6 338 319 329 79 153 149 145 137 130 127 135 141 147 147 146 149 148 144 139 153 158 164 171 173 167 174 167
225 245 210 268 320 296 328 354 223 192 254 188 208 255 239 126 132 321 359 21 12 79 142 137 134 141 145 146 146 142 139 147 148 145 144 146 149 146 173 168 171 174 173 167
232 239 230 264 276 257 269 315 343 303 192 304 268 176 161 137 176 46 38 31 18 337 141 154 167 158 145 154 159 158 153 150 146 149 150 153 158 157 153 168 170 170 178 171
222 260 279 224 243 268 228 251 242 274 297 285 179 134 133 134 49 49 27 3 349 357 219 186 171 161 157 163 167 163 157 157 156 161 161 160 161 162 161 166 171 174 178 172
258 248 246 261 271 264 253 234 226 165 198 70 68 85 73 88 38 14 22 10 337 18 16 316 211 188 158 164 163 162 162 167 160 161 164 162 160 159 162 162 164 161 155 172
253 238 229 234 244 253 256 188 196 160 80 29 92 86 77 72 21 13 5 9 29 17 351 344 355 284 165 166 169 165 163 163 162 163 159 162 163 163 163 164 162 166 171 167
193 254 254 250 231 238 233 213 184 132 132 161 98 78 55 44 10 20 357 350 339 342 339 314 306 312 198 174 177 176 166 160 169 164 169 170 171 173 171 167 169 173 176 175
215 213 269 266 265 155 128 117 118 120 124 163 101 87 32 7 339 333 337 334 328 330 323 288 304 322 239 182 184 175 174 172 170 173 174 173 174 171 172 173 174 173 171 178
166 147 70 51 95 99 82 94 89 92 119 122 110 101 28 348 344 338 319 312 325 329 318 300 308 294 278 211 191 177 181 180 180 177 177 177 173 174 172 174 174 171 163 168
95 80 74 76 63 87 95 88 103 123 151 136 117 63 5 357 334 295 280 310 285 282 326 304 292 276 267 242 201 203 195 194 187 185 180 177 179 177 176 175 170 166 164 171
93 97 94 83 79 81 98 131 117 147 169 111 101 52 24 342 345 338 328 337 330 20 329 307 287 248 237 231 214 211 203 200 192 185 185 184 177 176 175 174 172 170 170 171
163 98 99 95 97 122 142 137 130 113 119 73 61 33 4 5 346 335 298 305 331 330 313 298 295 296 282 252 226 215 206 201 197 186 182 178 178 177 178 174 178 176 173 174
49 81 86 106 166 171 148 161 138 81 90 154 171 206 106 303 301 328 323 359 331 316 307 303 314 305 293 257 221 219 200 190 186 180 184 183 182 179 178 177 175 172 172 169
136 137 157 193 182 156 142 216 146 173 177 161 195 215 184 282 328 294 315 325 310 317 308 295 307 303 307 250 201 204 194 177 177 167 165 165 166 163 166 168 172 171 169 165
164 171 178 197 178 175 189 175 178 190 190 190 213 211 198 176 192 341 6 300 314 298 303 343 328 322 292 205 149 140 133 137 147 151 156 161 163 169 171 170 169 168 163 164
248 204 198 193 201 170 177 169 197 203 154 241 326 153 133 78 44 354 321 324 299 318 345 336 348 341 356 74 85 92 100 119 135 141 151 154 155 155 155 156 159 158 157 157
277 189 159 161 199 196 210 218 212 263 171 148 164 144 123 87 63 342 345 326 323 5 344 356 11 14 27 50 53 59 68 80 98 108 114 123 127 132 138 139 139 140 139 140